Location: Barrio Las Umbrías
(40.4173°N, 4.8685°W)
Time: 13:42:42
(UTC+00:00)

Okean O Rocket - Pass Details

Date: 17 August 2022
Orbit: 622 x 644 km, 98.2° (Epoch: 27 September)

Event Time Altitude Azimuth Distance (km) Brightness Sun altitude
Rises 20:21:38 0° 207° (SSW) 2,927 5.0 -12.5°
Reaches altitude 10° 20:24:37 10° 229° (SW) 2,020 4.4 -13.0°
Maximum altitude 20:27:19 16° 267° (W) 1,656 4.6 -13.5°
Drops below altitude 10° 20:30:03 10° 306° (NW) 2,021 5.6 -13.9°
Sets 20:33:03 0° 328° (NNW) 2,930 6.2 -14.4°
